Погода в Покровском

Украина / Полтавская область     49°38′37″N   34°08′17″E
темп.,
°C
ветер,
м/с
пор.,
м/с
влажн.,
%
обл.,
%
осадки,
мм/ч
давл.,
гПа
погр.,
м
6 мая, чт
чт600:00+12ю51263100 0.0 1012414
03:00+9ю51372100 0.0 1012366
06:00+8ююв5127098 0.0 1011353
09:00+12ю8136145 0.0 1011771
12:00+14ююз71158100 0.0 10111090
15:00+16юз61054100 0.0 10101692
18:00+9сз4993100 1.1 1012520
21:00+8з119581 2.1 101422
7 мая, пт
пт700:00+7зюз22936 0.0 101513
03:00+6зюз229211 0.0 101616
06:00+6ююз118520 0.0 101611
09:00+12ююз2259100 0.0 1017397
12:00+16ю344494 0.0 10161446
15:00+17ю6744100 0.0 10141806
18:00+16ю4855100 0.0 1013402
21:00+14юв51154100 0.0 1011280
8 мая, сб
сб800:00+14ююз61365100 0.1 1010602
03:00+12ю61384100 2.9 1009544
06:00+12ююз61385100 0.1 1008637
09:00+12ююз61195100 0.6 1008690
12:00+10сз61094100 4.0 1010612
15:00+10зсз5987100 5.8 1012790
18:00+10сз5976100 0.1 1014872
21:00+8сз3779100 0.1 1015198
9 мая, вс
вс900:00+6сз3981100 0.0 1017239
03:00+5ссз41180100 0.0 1019308
06:00+4ссз41081100 0.0 1020291
09:00+9ссз710675 0.0 1021922
12:00+12ссз811505 0.0 10211930
15:00+13ссз8114340 0.0 10212503
18:00+12сз6105324 0.0 10231966
21:00+7сз49761 0.1 1025169
10 мая, пн
пн1000:00+5ссз410785 0.0 1026172
03:00+4ссз412753 0.0 1026217
06:00+4ссз511775 0.0 1027203
09:00+11с712520 0.0 10271049
12:00+14с811431 0.0 10251414
15:00+15ссв811455 0.0 10241679
18:00+14ссв7115894 0.0 10241288
21:00+12ссв61263100 0.0 1024967